When you browse on this site, cookies collect data to enhance your experience and personalize the content and advertising you see.
Visit our Privacy Policy to learn more. By continuing to use the site, you agree to this use of cookies and data.
EN

Hourly Weather Tot'ma

Today, 8 August, Saturday

Time Temperature Precipitation Wind Pressure Humidity
00:00 +15°C° 0 mm 1 mps 754 mmHg 82%
01:00 +15°C° 0 mm 1 mps 754 mmHg 82%
02:00 +14°C° 0 mm 1 mps 754 mmHg 82%
03:00 +14°C° 0 mm 1 mps 754 mmHg 84%
04:00 +15°C° 0 mm 1 mps 753 mmHg 83%
05:00 +15°C° 0 mm 1 mps 753 mmHg 83%
06:00 +15°C° 0 mm 1 mps 753 mmHg 82%
07:00 +16°C° 0.1 mm 1 mps 753 mmHg 82%
08:00 +16°C° 0.1 mm 2 mps 753 mmHg 82%
09:00 +17°C° 0 mm 2 mps 753 mmHg 80%
10:00 +16°C° 0.2 mm 2 mps 753 mmHg 83%
11:00 +16°C° 0.2 mm 1 mps 752 mmHg 86%
12:00 +16°C° 0.2 mm 1 mps 752 mmHg 88%
13:00 +18°C° 0.3 mm 1 mps 752 mmHg 83%
14:00 +19°C° 0.3 mm 2 mps 751 mmHg 78%
15:00 +20°C° 0.3 mm 2 mps 751 mmHg 73%
16:00 +20°C° 0 mm 2 mps 751 mmHg 72%
17:00 +21°C° 0 mm 1 mps 750 mmHg 72%
18:00 +21°C° 0 mm 1 mps 750 mmHg 71%
19:00 +19°C° 0 mm 1 mps 750 mmHg 78%
20:00 +16°C° 0 mm 1 mps 750 mmHg 85%
21:00 +14°C° 0 mm 1 mps 750 mmHg 92%
22:00 +14°C° 0 mm 1 mps 750 mmHg 93%
23:00 +12°C° 0 mm 0 mps 749 mmHg 93%

Tomorrow, 9 August, Sunday

Time Temperature Precipitation Wind Pressure Humidity
00:00 +12°C° 0 mm 0 mps 749 mmHg 94%
01:00 +12°C° 0 mm 1 mps 750 mmHg 95%
02:00 +12°C° 0 mm 1 mps 750 mmHg 96%
03:00 +12°C° 0 mm 2 mps 750 mmHg 98%
04:00 +12°C° 0 mm 2 mps 750 mmHg 96%
05:00 +12°C° 0 mm 2 mps 750 mmHg 94%
06:00 +13°C° 0 mm 2 mps 749 mmHg 93%
07:00 +13°C° 0 mm 3 mps 750 mmHg 82%
08:00 +16°C° 0 mm 3 mps 750 mmHg 72%
09:00 +17°C° 0 mm 4 mps 750 mmHg 62%
10:00 +18°C° 0 mm 4 mps 750 mmHg 59%
11:00 +19°C° 0 mm 4 mps 750 mmHg 55%
12:00 +19°C° 0 mm 4 mps 750 mmHg 51%
13:00 +19°C° 0 mm 4 mps 750 mmHg 51%
14:00 +19°C° 0 mm 4 mps 750 mmHg 50%
15:00 +19°C° 0 mm 4 mps 750 mmHg 50%
16:00 +19°C° 0 mm 3 mps 750 mmHg 53%
17:00 +18°C° 0 mm 3 mps 749 mmHg 56%
18:00 +17°C° 0 mm 2 mps 749 mmHg 59%
19:00 +16°C° 0 mm 2 mps 749 mmHg 66%
20:00 +14°C° 0 mm 2 mps 749 mmHg 73%
21:00 +12°C° 0 mm 1 mps 749 mmHg 80%
22:00 +11°C° 0 mm 1 mps 749 mmHg 82%
23:00 +11°C° 0 mm 1 mps 749 mmHg 85%

Day after tomorrow, 10 August, Monday

Time Temperature Precipitation Wind Pressure Humidity
00:00 +10°C° 0 mm 1 mps 749 mmHg 88%
01:00 +10°C° 0 mm 1 mps 749 mmHg 88%
02:00 +10°C° 0 mm 1 mps 749 mmHg 88%
03:00 +10°C° 0 mm 1 mps 749 mmHg 89%
04:00 +10°C° 0 mm 1 mps 749 mmHg 87%
05:00 +11°C° 0 mm 1 mps 749 mmHg 85%
06:00 +11°C° 0 mm 1 mps 749 mmHg 83%
07:00 +13°C° 0 mm 1 mps 749 mmHg 77%
08:00 +15°C° 0 mm 1 mps 748 mmHg 71%
09:00 +16°C° 0 mm 1 mps 748 mmHg 65%
10:00 +18°C° 0 mm 1 mps 748 mmHg 62%
11:00 +19°C° 0 mm 1 mps 748 mmHg 60%
12:00 +19°C° 0 mm 1 mps 748 mmHg 58%
13:00 +21°C° 0 mm 1 mps 747 mmHg 55%
14:00 +22°C° 0 mm 1 mps 747 mmHg 52%
15:00 +23°C° 0 mm 1 mps 747 mmHg 49%
16:00 +23°C° 0 mm 1 mps 746 mmHg 55%
17:00 +22°C° 0 mm 1 mps 746 mmHg 61%
18:00 +22°C° 0 mm 1 mps 745 mmHg 67%
19:00 +20°C° 0.1 mm 1 mps 745 mmHg 73%
20:00 +19°C° 0.1 mm 1 mps 745 mmHg 79%
21:00 +18°C° 0.1 mm 1 mps 745 mmHg 84%
22:00 +16°C° 0.1 mm 1 mps 745 mmHg 88%
23:00 +15°C° 0.1 mm 1 mps 744 mmHg 91%

11 August, Tuesday

Time Temperature Precipitation Wind Pressure Humidity
00:00 +14°C° 0.1 mm 1 mps 744 mmHg 94%
01:00 +14°C° 0 mm 1 mps 744 mmHg 96%
02:00 +13°C° 0 mm 1 mps 744 mmHg 97%
03:00 +13°C° 0 mm 1 mps 744 mmHg 99%
04:00 +13°C° 0 mm 1 mps 744 mmHg 98%
05:00 +14°C° 0 mm 1 mps 744 mmHg 98%
06:00 +14°C° 0 mm 1 mps 743 mmHg 98%
07:00 +14°C° 0 mm 1 mps 743 mmHg 96%
08:00 +15°C° 0 mm 1 mps 743 mmHg 95%
09:00 +15°C° 0 mm 1 mps 743 mmHg 94%
10:00 +16°C° 0.1 mm 1 mps 744 mmHg 89%
11:00 +18°C° 0.1 mm 1 mps 744 mmHg 84%
12:00 +19°C° 0.1 mm 1 mps 744 mmHg 78%
13:00 +19°C° 0.6 mm 1 mps 744 mmHg 80%
14:00 +18°C° 0.6 mm 2 mps 744 mmHg 81%
15:00 +18°C° 0.6 mm 2 mps 744 mmHg 82%
16:00 +17°C° 0.8 mm 3 mps 744 mmHg 86%
17:00 +15°C° 0.8 mm 4 mps 745 mmHg 89%
18:00 +14°C° 0.8 mm 4 mps 745 mmHg 93%
19:00 +13°C° 0.2 mm 4 mps 745 mmHg 94%
20:00 +12°C° 0.2 mm 4 mps 745 mmHg 94%
21:00 +12°C° 0.2 mm 4 mps 745 mmHg 94%
22:00 +11°C° 0 mm 4 mps 745 mmHg 93%
23:00 +11°C° 0 mm 4 mps 746 mmHg 92%

12 August, Wednesday

Time Temperature Precipitation Wind Pressure Humidity
00:00 +11°C° 0 mm 4 mps 746 mmHg 91%
01:00 +11°C° 0 mm 4 mps 746 mmHg 91%
02:00 +10°C° 0 mm 4 mps 746 mmHg 91%
03:00 +10°C° 0 mm 4 mps 746 mmHg 91%
04:00 +10°C° 0 mm 4 mps 746 mmHg 90%
05:00 +10°C° 0 mm 4 mps 747 mmHg 89%
06:00 +8°C° 0 mm 4 mps 747 mmHg 88%
07:00 +11°C° 0 mm 4 mps 747 mmHg 80%
08:00 +12°C° 0 mm 5 mps 747 mmHg 72%
09:00 +13°C° 0 mm 5 mps 747 mmHg 64%
10:00 +14°C° 0 mm 5 mps 747 mmHg 59%
11:00 +15°C° 0 mm 4 mps 748 mmHg 54%
12:00 +17°C° 0 mm 4 mps 748 mmHg 50%
13:00 +17°C° 0 mm 4 mps 748 mmHg 52%
14:00 +15°C° 0 mm 4 mps 748 mmHg 55%
15:00 +15°C° 0 mm 4 mps 748 mmHg 58%
16:00 +14°C° 0 mm 3 mps 748 mmHg 60%
17:00 +14°C° 0 mm 3 mps 749 mmHg 62%
18:00 +14°C° 0 mm 3 mps 749 mmHg 64%
19:00 +12°C° 0 mm 3 mps 749 mmHg 71%
20:00 +10°C° 0 mm 2 mps 749 mmHg 77%
21:00 +9°C° 0 mm 2 mps 749 mmHg 83%
22:00 +8°C° 0 mm 2 mps 749 mmHg 87%
23:00 +7°C° 0 mm 2 mps 749 mmHg 90%

13 August, Thursday

Time Temperature Precipitation Wind Pressure Humidity
00:00 +7°C° 0 mm 2 mps 749 mmHg 94%
01:00 +6°C° 0 mm 2 mps 749 mmHg 95%
02:00 +6°C° 0 mm 2 mps 749 mmHg 96%
03:00 +5°C° 0 mm 2 mps 750 mmHg 97%
04:00 +6°C° 0 mm 2 mps 750 mmHg 95%
05:00 +6°C° 0 mm 2 mps 750 mmHg 93%
06:00 +7°C° 0 mm 2 mps 750 mmHg 92%
07:00 +9°C° 0 mm 2 mps 750 mmHg 84%
08:00 +10°C° 0 mm 2 mps 750 mmHg 75%
09:00 +13°C° 0 mm 2 mps 750 mmHg 67%
10:00 +14°C° 0 mm 2 mps 750 mmHg 63%
11:00 +15°C° 0 mm 2 mps 749 mmHg 58%
12:00 +16°C° 0 mm 2 mps 749 mmHg 54%
13:00 +16°C° 0 mm 2 mps 749 mmHg 54%
14:00 +16°C° 0 mm 2 mps 749 mmHg 54%
15:00 +16°C° 0 mm 2 mps 749 mmHg 53%
16:00 +15°C° 0 mm 2 mps 749 mmHg 57%
17:00 +15°C° 0 mm 2 mps 749 mmHg 61%
18:00 +14°C° 0 mm 2 mps 749 mmHg 64%
19:00 +13°C° 0 mm 1 mps 749 mmHg 68%
20:00 +11°C° 0 mm 1 mps 749 mmHg 72%
21:00 +10°C° 0 mm 1 mps 749 mmHg 76%
22:00 +10°C° 0 mm 1 mps 749 mmHg 77%
23:00 +9°C° 0 mm 1 mps 749 mmHg 78%
Show more